�_�ʐ�͌���@�Y���u�C�̈ړ���(������),,,,,,,,,,,,
�@,Time,Time int.,,Lat.,,Long.,,Distance,,Direction,Speed,
Date(yy/mm/dd),(hh:mm),(hour),(min),(deg),(min),(deg),(min),(miles),(meter),(deg),(m/s),(knots)
2005/2/27,10:20,,,36,46.146 ,137,13.290 ,,,,,
2005/2/27,10:25,0,5,36,46.194 ,137,13.242 ,0.07 ,125.72 ,315.0 ,0.42 ,0.81 
2005/2/27,10:30,0,5,36,46.242 ,137,13.194 ,0.07 ,125.72 ,315.0 ,0.42 ,0.81 
2005/2/27,10:35,0,5,36,46.266 ,137,13.170 ,0.03 ,62.86 ,315.0 ,0.21 ,0.41 
2005/2/27,10:40,0,5,36,46.308 ,137,13.140 ,0.05 ,95.59 ,324.5 ,0.32 ,0.62 
2005/2/27,10:45,0,5,36,46.332 ,137,13.116 ,0.03 ,62.86 ,315.0 ,0.21 ,0.41 
2005/2/27,10:50,0,5,36,46.362 ,137,13.092 ,0.04 ,71.15 ,321.3 ,0.24 ,0.46 
2005/2/27,10:55,0,5,36,46.404 ,137,13.056 ,0.06 ,102.45 ,319.4 ,0.34 ,0.66 
2005/2/27,11:00,0,5,36,46.434 ,137,13.044 ,0.03 ,59.84 ,338.2 ,0.20 ,0.39 
2005/2/27,11:05,0,5,36,46.458 ,137,13.026 ,0.03 ,55.56 ,323.1 ,0.19 ,0.36 
2005/2/27,11:10,0,5,36,46.476 ,137,13.044 ,0.03 ,47.14 ,45.0 ,0.16 ,0.31 
2005/2/27,11:15,0,5,36,46.506 ,137,13.020 ,0.04 ,71.15 ,321.3 ,0.24 ,0.46 
2005/2/27,11:20,0,5,36,46.536 ,137,13.008 ,0.03 ,59.84 ,338.2 ,0.20 ,0.39 
2005/2/27,11:25,0,5,36,46.554 ,137,13.002 ,0.02 ,35.14 ,341.6 ,0.12 ,0.23 
2005/2/27,11:30,0,5,36,46.578 ,137,12.996 ,0.02 ,45.82 ,346.0 ,0.15 ,0.30 
2005/2/27,11:40,0,10,36,46.620 ,137,12.978 ,0.05 ,84.63 ,336.8 ,0.14 ,0.27 
2005/2/27,11:50,0,10,36,46.668 ,137,12.954 ,0.05 ,99.39 ,333.4 ,0.17 ,0.32 
2005/2/27,11:55,0,5,36,46.680 ,137,12.954 ,0.01 ,22.22 ,0.0 ,0.07 ,0.14 
,,,,,,,,,,,,
,,,,,,,,,,,,
�A,Time,Time int.,,Lat.,,Long.,,Distance,,Direction,Speed,
Date(yy/mm/dd),(hh:mm),(hour),(min),(deg),(min),(deg),(min),(miles),(meter),(deg),(m/s),(knots)
2005/2/27,12:20,,,36,46.200 ,137,13.140 ,,,,,
2005/2/27,12:25,0,5,36,46.194 ,137,13.122 ,0.02 ,35.14 ,251.6 ,0.12 ,0.23 
2005/2/27,12:30,0,5,36,46.206 ,137,13.104 ,0.02 ,40.06 ,303.7 ,0.13 ,0.26 
2005/2/27,12:35,0,5,36,46.206 ,137,13.092 ,0.01 ,22.22 ,270.0 ,0.07 ,0.14 
2005/2/27,12:45,0,10,36,46.206 ,137,13.080 ,0.01 ,22.22 ,270.0 ,0.04 ,0.07 
2005/2/27,12:50,0,5,36,46.206 ,137,13.068 ,0.01 ,22.22 ,270.0 ,0.07 ,0.14 
2005/2/27,12:55,0,5,36,46.212 ,137,13.056 ,0.01 ,24.85 ,296.6 ,0.08 ,0.16 
2005/2/27,13:00,0,5,36,46.206 ,137,13.050 ,0.01 ,15.71 ,225.0 ,0.05 ,0.10 
2005/2/27,13:05,0,5,36,46.194 ,137,13.050 ,0.01 ,22.22 ,180.0 ,0.07 ,0.14 
2005/2/27,13:10,0,5,36,46.200 ,137,13.056 ,0.01 ,15.71 ,45.0 ,0.05 ,0.10 
2005/2/27,13:15,0,5,36,46.200 ,137,13.050 ,0.01 ,11.11 ,270.0 ,0.04 ,0.07 
2005/2/27,13:20,0,5,36,46.182 ,137,13.044 ,0.02 ,35.14 ,198.4 ,0.12 ,0.23 
2005/2/27,13:25,0,5,36,46.188 ,137,13.038 ,0.01 ,15.71 ,315.0 ,0.05 ,0.10 
2005/2/27,13:30,0,5,36,46.200 ,137,13.038 ,0.01 ,22.22 ,0.0 ,0.07 ,0.14 
2005/2/27,13:35,0,5,36,46.206 ,137,13.032 ,0.01 ,15.71 ,315.0 ,0.05 ,0.10 
2005/2/27,13:45,0,10,36,46.200 ,137,13.020 ,0.01 ,24.85 ,243.4 ,0.04 ,0.08 
2005/2/27,13:55,0,10,36,46.188 ,137,13.014 ,0.01 ,24.85 ,206.6 ,0.04 ,0.08 
2005/2/27,14:10,0,15,36,46.170 ,137,13.002 ,0.02 ,40.06 ,213.7 ,0.04 ,0.09 
2005/2/27,14:20,0,10,36,46.152 ,137,12.990 ,0.02 ,40.06 ,213.7 ,0.07 ,0.13 
2005/2/27,14:25,0,5,36,46.140 ,137,12.978 ,0.02 ,31.43 ,225.0 ,0.10 ,0.20 
2005/2/27,14:35,0,10,36,46.128 ,137,12.984 ,0.01 ,24.85 ,153.4 ,0.04 ,0.08 
2005/2/27,14:40,0,5,36,46.122 ,137,12.990 ,0.01 ,15.71 ,135.0 ,0.05 ,0.10 
2005/2/27,14:50,0,10,36,46.110 ,137,13.002 ,0.02 ,31.43 ,135.0 ,0.05 ,0.10 
2005/2/27,14:55,0,5,36,46.092 ,137,12.996 ,0.02 ,35.14 ,198.4 ,0.12 ,0.23 
2005/2/27,15:00,0,5,36,46.074 ,137,12.996 ,0.02 ,33.34 ,180.0 ,0.11 ,0.22 
,,,,,,,,,,,,
�B,Time,Time int.,,Lat.,,Long.,,Distance,,Direction,Speed,
Date(yy/mm/dd),(hh:mm),(hour),(min),(deg),(min),(deg),(min),(miles),(meter),(deg),(m/s),(knots)
2005/2/27,10:25,,,36,46.020 ,137,13.428 ,,,,,
2005/2/27,10:30,0,5,36,46.074 ,137,13.422 ,0.05 ,100.62 ,353.7 ,0.34 ,0.65 
2005/2/27,10:35,0,5,36,46.146 ,137,13.398 ,0.08 ,140.56 ,341.6 ,0.47 ,0.91 
2005/2/27,10:40,0,5,36,46.200 ,137,13.368 ,0.06 ,114.41 ,330.9 ,0.38 ,0.74 
2005/2/27,10:45,0,5,36,46.242 ,137,13.326 ,0.06 ,110.00 ,315.0 ,0.37 ,0.71 
2005/2/27,10:50,0,5,36,46.260 ,137,13.302 ,0.03 ,55.56 ,306.9 ,0.19 ,0.36 
2005/2/27,10:55,0,5,36,46.314 ,137,13.254 ,0.07 ,133.81 ,318.4 ,0.45 ,0.87 
2005/2/27,11:00,0,5,36,46.350 ,137,13.218 ,0.05 ,94.29 ,315.0 ,0.31 ,0.61 
2005/2/27,11:05,0,5,36,46.368 ,137,13.188 ,0.03 ,64.79 ,301.0 ,0.22 ,0.42 
2005/2/27,11:10,0,5,36,46.410 ,137,13.146 ,0.06 ,110.00 ,315.0 ,0.37 ,0.71 
2005/2/27,11:15,0,5,36,46.446 ,137,13.110 ,0.05 ,94.29 ,315.0 ,0.31 ,0.61 
2005/2/27,11:20,0,5,36,46.470 ,137,13.110 ,0.02 ,44.45 ,0.0 ,0.15 ,0.29 
2005/2/27,11:25,0,5,36,46.494 ,137,13.092 ,0.03 ,55.56 ,323.1 ,0.19 ,0.36 
2005/2/27,11:30,0,5,36,46.506 ,137,13.062 ,0.03 ,59.84 ,291.8 ,0.20 ,0.39 
2005/2/27,11:35,0,5,36,46.518 ,137,13.050 ,0.02 ,31.43 ,315.0 ,0.10 ,0.20 
2005/2/27,11:40,0,5,36,46.548 ,137,13.050 ,0.03 ,55.56 ,0.0 ,0.19 ,0.36 
2005/2/27,11:50,0,10,36,46.578 ,137,13.032 ,0.03 ,64.79 ,329.0 ,0.11 ,0.21 
2005/2/27,11:55,0,5,36,46.602 ,137,13.026 ,0.02 ,45.82 ,346.0 ,0.15 ,0.30 
,,,,,,,,,,,,
,,,,,,,,,,,,
�C,Time,Time int.,,Lat.,,Long.,,Distance,,Direction,Speed,
Date(yy/mm/dd),(hh:mm),(hour),(min),(deg),(min),(deg),(min),(miles),(meter),(deg),(m/s),(knots)
2005/2/27,12:20,,,36,46.068 ,137,13.530 ,,,,,
2005/2/27,12:25,0,5,36,46.116 ,137,13.548 ,0.05 ,94.94 ,20.6 ,0.32 ,0.62 
2005/2/27,12:30,0,5,36,46.176 ,137,13.560 ,0.06 ,113.32 ,11.3 ,0.38 ,0.73 
2005/2/27,12:35,0,5,36,46.200 ,137,13.566 ,0.02 ,45.82 ,14.0 ,0.15 ,0.30 
2005/2/27,12:40,0,5,36,46.248 ,137,13.566 ,0.05 ,88.90 ,0.0 ,0.30 ,0.58 
2005/2/27,12:45,0,5,36,46.260 ,137,13.578 ,0.02 ,31.43 ,45.0 ,0.10 ,0.20 
2005/2/27,12:50,0,5,36,46.296 ,137,13.572 ,0.04 ,67.59 ,350.5 ,0.23 ,0.44 
2005/2/27,12:55,0,5,36,46.320 ,137,13.566 ,0.02 ,45.82 ,346.0 ,0.15 ,0.30 
2005/2/27,13:00,0,5,36,46.338 ,137,13.554 ,0.02 ,40.06 ,326.3 ,0.13 ,0.26 
2005/2/27,13:10,0,10,36,46.380 ,137,13.554 ,0.04 ,77.78 ,0.0 ,0.13 ,0.25 
2005/2/27,13:15,0,5,36,46.392 ,137,13.530 ,0.03 ,49.69 ,296.6 ,0.17 ,0.32 
2005/2/27,13:25,0,10,36,46.440 ,137,13.500 ,0.06 ,104.83 ,328.0 ,0.17 ,0.34 
2005/2/27,13:30,0,5,36,46.458 ,137,13.476 ,0.03 ,55.56 ,306.9 ,0.19 ,0.36 
2005/2/27,13:35,0,5,36,46.506 ,137,13.470 ,0.05 ,89.59 ,352.9 ,0.30 ,0.58 
2005/2/27,13:40,0,5,36,46.530 ,137,13.446 ,0.03 ,62.86 ,315.0 ,0.21 ,0.41 
2005/2/27,13:45,0,5,36,46.548 ,137,13.434 ,0.02 ,40.06 ,326.3 ,0.13 ,0.26 
2005/2/27,13:50,0,5,36,46.566 ,137,13.404 ,0.03 ,64.79 ,301.0 ,0.22 ,0.42 
2005/2/27,13:55,0,5,36,46.602 ,137,13.398 ,0.04 ,67.59 ,350.5 ,0.23 ,0.44 
2005/2/27,14:00,0,5,36,46.614 ,137,13.386 ,0.02 ,31.43 ,315.0 ,0.10 ,0.20 
2005/2/27,14:05,0,5,36,46.632 ,137,13.368 ,0.03 ,47.14 ,315.0 ,0.16 ,0.31 
2005/2/27,14:10,0,5,36,46.644 ,137,13.350 ,0.02 ,40.06 ,303.7 ,0.13 ,0.26 
2005/2/27,14:15,0,5,36,46.686 ,137,13.344 ,0.04 ,78.57 ,351.9 ,0.26 ,0.51 
2005/2/27,14:20,0,5,36,46.692 ,137,13.320 ,0.02 ,45.82 ,284.0 ,0.15 ,0.30 
2005/2/27,14:25,0,5,36,46.722 ,137,13.314 ,0.03 ,56.66 ,348.7 ,0.19 ,0.37 
2005/2/27,14:30,0,5,36,46.758 ,137,13.308 ,0.04 ,67.59 ,350.5 ,0.23 ,0.44 
2005/2/27,14:40,0,10,36,46.776 ,137,13.302 ,0.02 ,35.14 ,341.6 ,0.06 ,0.11 
2005/2/27,14:45,0,5,36,46.782 ,137,13.308 ,0.01 ,15.71 ,45.0 ,0.05 ,0.10 
2005/2/27,14:50,0,5,36,46.812 ,137,13.326 ,0.03 ,64.79 ,31.0 ,0.22 ,0.42 
2005/2/27,15:00,0,10,36,46.818 ,137,13.338 ,0.01 ,24.85 ,63.4 ,0.04 ,0.08 
2005/2/27,15:05,0,5,36,46.830 ,137,13.344 ,0.01 ,24.85 ,26.6 ,0.08 ,0.16 
